sat.trackr.live / text

‹ back to catalog

STARLINK-36834

NORAD 67959 · 2026-037AD

PAYLOAD ACTIVE UNKNOWN

§ Identity

Operator
Country
US
Launch date
2026-02-24
Launch site
AFETR
Launch vehicle
Mass (kg)
RCS (m²)

Purposes: comms

External: N2YO · Heavens-Above · Gunter

§ Orbital elements

Epoch: 2026-05-25T04:37:59.455200Z

Period
94.27 min
Inclination
43.0013°
Eccentricity
0.0001794
Mean motion
15.27598751 rev/d
Perigee alt
481.8 km
Apogee alt
484.2 km
Semi-major
6,861.1 km
B*
6.5956e-4
RAAN
118.4340°
Arg perigee
283.1698°
Mean anomaly
76.8953°
Rev number
1,504

§ Raw data

STARLINK-368341 67959U 26037AD  26145.19304925  .00017942  00000+0  65956-3 0  99912 67959  43.0013 118.4340 0001794 283.1698  76.8953 15.27598751 15046

JSON: /api/v1/satellites/67959 · /tle

For live sub-satellite position, see the globe view (requires WebGL).

§ Visibility from observer

Set your observer location to see the next 7 days of passes ≥ 10°. The values pass through the URL so the page stays shareable.

No JS? Fill the form by hand. The geolocation button needs JavaScript.